Location: Chuathbaluk
(61.5726°N, 159.2454°W)
Time: 14:10:14
(UTC+00:00)

NUDT-PHONESAT - Pass Details

Date: 25 January 2021
Orbit: 480 x 498 km, 97.4° (Epoch: 01 March)

Event Time Altitude Azimuth Distance (km) Brightness Sun altitude
Rises 03:36:38 0° 151° (SSE) 2,579 ? -8.3°
Reaches altitude 10° 03:38:42 10° 147° (SSE) 1,703 ? -8.5°
Maximum altitude 03:42:19 60° 68° (ENE) 583 ? -8.9°
Drops below altitude 10° 03:45:58 10° 348° (NNW) 1,722 ? -9.3°
Sets 03:48:05 0° 345° (NNW) 2,611 ? -9.6°
